• In Romania
  • List of Countries
  • For 7 days
  • Water Temperature
  • Satellite Maps
  • Weather Map
  • Weather Widgets
  • user-avatar
    Login

    Hourly Weather Perevalnyy

    Today, 21 September, Friday

    Time Temperature Precipitation Wind Pressure Humidity
    00:00 +18°C° 0 mm 1 mps 729 mmHg 57%
    01:00 +18°C° 0 mm 1 mps 729 mmHg 58%
    02:00 +16°C° 0 mm 1 mps 729 mmHg 59%
    03:00 +15°C° 0 mm 0 mps 728 mmHg 60%
    04:00 +16°C° 0 mm 1 mps 729 mmHg 61%
    05:00 +15°C° 0 mm 1 mps 729 mmHg 62%
    06:00 +15°C° 0 mm 1 mps 729 mmHg 63%
    07:00 +18°C° 0 mm 1 mps 729 mmHg 57%
    08:00 +21°C° 0 mm 1 mps 729 mmHg 51%
    09:00 +23°C° 0 mm 1 mps 729 mmHg 45%
    10:00 +24°C° 0 mm 1 mps 729 mmHg 41%
    11:00 +26°C° 0 mm 2 mps 729 mmHg 37%
    12:00 +27°C° 0 mm 3 mps 729 mmHg 34%
    13:00 +27°C° 0 mm 3 mps 729 mmHg 33%
    14:00 +28°C° 0 mm 3 mps 729 mmHg 32%
    15:00 +28°C° 0 mm 3 mps 729 mmHg 31%
    16:00 +26°C° 0 mm 3 mps 729 mmHg 35%
    17:00 +25°C° 0 mm 2 mps 729 mmHg 39%
    18:00 +23°C° 0 mm 2 mps 729 mmHg 42%
    19:00 +21°C° 0 mm 2 mps 729 mmHg 44%
    20:00 +20°C° 0 mm 2 mps 729 mmHg 46%
    21:00 +19°C° 0 mm 2 mps 729 mmHg 48%
    22:00 +19°C° 0 mm 2 mps 729 mmHg 50%
    23:00 +19°C° 0 mm 1 mps 729 mmHg 51%

    Tomorrow, 22 September, Saturday

    Time Temperature Precipitation Wind Pressure Humidity
    00:00 +19°C° 0 mm 1 mps 729 mmHg 53%
    01:00 +18°C° 0 mm 1 mps 729 mmHg 54%
    02:00 +18°C° 0 mm 1 mps 729 mmHg 55%
    03:00 +18°C° 0 mm 1 mps 728 mmHg 56%
    04:00 +16°C° 0 mm 1 mps 728 mmHg 56%
    05:00 +16°C° 0 mm 1 mps 728 mmHg 57%
    06:00 +16°C° 0 mm 2 mps 728 mmHg 58%
    07:00 +18°C° 0 mm 2 mps 729 mmHg 53%
    08:00 +20°C° 0 mm 3 mps 729 mmHg 48%
    09:00 +23°C° 0 mm 4 mps 729 mmHg 42%
    10:00 +25°C° 0 mm 4 mps 729 mmHg 39%
    11:00 +26°C° 0 mm 5 mps 729 mmHg 37%
    12:00 +27°C° 0 mm 6 mps 729 mmHg 34%
    13:00 +28°C° 0 mm 6 mps 729 mmHg 33%
    14:00 +28°C° 0 mm 6 mps 728 mmHg 33%
    15:00 +28°C° 0 mm 6 mps 728 mmHg 33%
    16:00 +27°C° 0 mm 5 mps 728 mmHg 37%
    17:00 +25°C° 0 mm 4 mps 728 mmHg 41%
    18:00 +23°C° 0 mm 4 mps 728 mmHg 45%
    19:00 +22°C° 0 mm 4 mps 728 mmHg 49%
    20:00 +21°C° 0 mm 4 mps 728 mmHg 53%
    21:00 +20°C° 0 mm 4 mps 728 mmHg 57%
    22:00 +19°C° 0 mm 4 mps 728 mmHg 62%
    23:00 +18°C° 0 mm 4 mps 728 mmHg 67%

    Day after tomorrow, 23 September, Sunday

    Time Temperature Precipitation Wind Pressure Humidity
    00:00 +18°C° 0 mm 4 mps 728 mmHg 72%
    01:00 +17°C° 0 mm 4 mps 728 mmHg 75%
    02:00 +17°C° 0 mm 3 mps 728 mmHg 78%
    03:00 +16°C° 0 mm 3 mps 728 mmHg 81%
    04:00 +16°C° 0 mm 3 mps 728 mmHg 82%
    05:00 +16°C° 0 mm 3 mps 727 mmHg 84%
    06:00 +15°C° 0 mm 2 mps 727 mmHg 85%
    07:00 +17°C° 0 mm 2 mps 727 mmHg 77%
    08:00 +19°C° 0 mm 2 mps 728 mmHg 70%
    09:00 +21°C° 0 mm 2 mps 728 mmHg 62%
    10:00 +23°C° 0 mm 2 mps 727 mmHg 56%
    11:00 +25°C° 0 mm 2 mps 727 mmHg 50%
    12:00 +27°C° 0 mm 2 mps 727 mmHg 44%
    13:00 +27°C° 0 mm 2 mps 727 mmHg 43%
    14:00 +27°C° 0 mm 2 mps 727 mmHg 41%
    15:00 +28°C° 0 mm 2 mps 726 mmHg 40%
    16:00 +26°C° 0.1 mm 2 mps 726 mmHg 44%
    17:00 +25°C° 0.1 mm 2 mps 726 mmHg 49%
    18:00 +24°C° 0.1 mm 1 mps 726 mmHg 54%
    19:00 +23°C° 1.1 mm 2 mps 726 mmHg 61%
    20:00 +21°C° 1.1 mm 3 mps 726 mmHg 69%
    21:00 +20°C° 1.1 mm 4 mps 727 mmHg 76%
    22:00 +19°C° 0.2 mm 4 mps 727 mmHg 78%
    23:00 +19°C° 0.2 mm 4 mps 727 mmHg 80%

    24 September, Monday

    Time Temperature Precipitation Wind Pressure Humidity
    00:00 +18°C° 0.2 mm 4 mps 727 mmHg 82%
    01:00 +18°C° 0 mm 4 mps 727 mmHg 82%
    02:00 +17°C° 0 mm 4 mps 727 mmHg 82%
    03:00 +16°C° 0 mm 5 mps 727 mmHg 82%
    04:00 +16°C° 0.2 mm 5 mps 728 mmHg 82%
    05:00 +15°C° 0.2 mm 5 mps 728 mmHg 83%
    06:00 +15°C° 0.2 mm 6 mps 729 mmHg 83%
    07:00 +14°C° 0.1 mm 6 mps 729 mmHg 80%
    08:00 +14°C° 0.1 mm 5 mps 729 mmHg 77%
    09:00 +13°C° 0.1 mm 5 mps 729 mmHg 74%
    10:00 +15°C° 0 mm 5 mps 729 mmHg 64%
    11:00 +17°C° 0 mm 4 mps 729 mmHg 54%
    12:00 +18°C° 0 mm 4 mps 729 mmHg 44%
    13:00 +19°C° 0 mm 3 mps 729 mmHg 41%
    14:00 +20°C° 0 mm 3 mps 729 mmHg 39%
    15:00 +20°C° 0 mm 2 mps 729 mmHg 36%
    16:00 +19°C° 0 mm 2 mps 729 mmHg 39%
    17:00 +18°C° 0 mm 2 mps 728 mmHg 41%
    18:00 +18°C° 0 mm 1 mps 728 mmHg 44%
    19:00 +18°C° 0 mm 1 mps 728 mmHg 47%
    20:00 +16°C° 0 mm 2 mps 728 mmHg 50%
    21:00 +15°C° 0 mm 2 mps 728 mmHg 54%
    22:00 +14°C° 0 mm 2 mps 727 mmHg 56%
    23:00 +14°C° 0 mm 2 mps 726 mmHg 57%

    25 September, Tuesday

    Time Temperature Precipitation Wind Pressure Humidity
    00:00 +14°C° 0 mm 2 mps 726 mmHg 59%
    01:00 +14°C° 0 mm 2 mps 726 mmHg 61%
    02:00 +13°C° 0 mm 2 mps 725 mmHg 63%
    03:00 +13°C° 0 mm 1 mps 725 mmHg 64%
    04:00 +13°C° 0 mm 1 mps 725 mmHg 65%
    05:00 +13°C° 0 mm 1 mps 726 mmHg 65%
    06:00 +13°C° 0 mm 1 mps 726 mmHg 65%
    07:00 +15°C° 0 mm 1 mps 726 mmHg 60%
    08:00 +18°C° 0 mm 1 mps 726 mmHg 54%
    09:00 +20°C° 0 mm 1 mps 726 mmHg 49%
    10:00 +22°C° 0 mm 1 mps 726 mmHg 46%
    11:00 +23°C° 0 mm 1 mps 726 mmHg 43%
    12:00 +25°C° 0 mm 2 mps 726 mmHg 40%
    13:00 +25°C° 0 mm 2 mps 726 mmHg 38%
    14:00 +26°C° 0 mm 2 mps 726 mmHg 37%
    15:00 +26°C° 0 mm 2 mps 726 mmHg 36%
    16:00 +24°C° 0 mm 3 mps 726 mmHg 43%
    17:00 +21°C° 0 mm 3 mps 727 mmHg 50%
    18:00 +19°C° 0 mm 3 mps 727 mmHg 57%
    19:00 +18°C° 0 mm 3 mps 727 mmHg 62%
    20:00 +16°C° 0 mm 3 mps 728 mmHg 67%
    21:00 +14°C° 0 mm 3 mps 728 mmHg 71%
    22:00 +13°C° 0 mm 3 mps 728 mmHg 70%
    23:00 +13°C° 0 mm 3 mps 728 mmHg 69%

    26 September, Wednesday

    Time Temperature Precipitation Wind Pressure Humidity
    00:00 +12°C° 0 mm 3 mps 728 mmHg 69%
    01:00 +12°C° 0 mm 3 mps 728 mmHg 68%
    02:00 +12°C° 0 mm 3 mps 729 mmHg 68%
    03:00 +11°C° 0 mm 3 mps 729 mmHg 68%
    04:00 +12°C° 0 mm 2 mps 729 mmHg 69%
    05:00 +12°C° 0 mm 2 mps 729 mmHg 70%
    06:00 +12°C° 0 mm 2 mps 730 mmHg 71%
    07:00 +12°C° 0 mm 2 mps 730 mmHg 69%
    08:00 +13°C° 0 mm 2 mps 730 mmHg 68%
    09:00 +13°C° 0 mm 2 mps 730 mmHg 66%
    10:00 +13°C° 0 mm 2 mps 730 mmHg 65%
    11:00 +14°C° 0 mm 2 mps 730 mmHg 64%
    12:00 +14°C° 0 mm 2 mps 730 mmHg 63%
    13:00 +14°C° 0 mm 2 mps 730 mmHg 62%
    14:00 +15°C° 0 mm 2 mps 731 mmHg 62%
    15:00 +15°C° 0 mm 2 mps 731 mmHg 61%
    16:00 +14°C° 0 mm 2 mps 731 mmHg 63%
    17:00 +14°C° 0 mm 2 mps 731 mmHg 65%
    18:00 +13°C° 0 mm 2 mps 731 mmHg 67%
    19:00 +13°C° 0 mm 2 mps 731 mmHg 69%
    20:00 +13°C° 0 mm 2 mps 731 mmHg 71%
    21:00 +13°C° 0 mm 2 mps 731 mmHg 73%
    22:00 +12°C° 0 mm 2 mps 731 mmHg 74%
    23:00 +12°C° 0 mm 2 mps 732 mmHg 75%
    Show more